AA0PB Weather Reports


Display with metric or nautical units.
time (UTC)temp
F
wind
direction
speed
MPH
gust
MPH
rain 1hr
in
rain 24hr
in
rain mn
in
humidity
%
barometer
mb
20260505093820 52 165 1.0 2.0 0.00 0.00 0.00 93 1014.9
20260505093319 52 241 3.0 3.0 0.00 0.00 0.00 93 1014.9
20260505092815 52 277 3.0 6.0 0.00 0.00 0.00 93 1014.9
20260505092314 52 201 2.0 2.0 0.00 0.00 0.00 93 1014.9
20260505091810 52 178 1.0 2.0 0.00 0.00 0.00 93 1015.0
20260505091308 52 188 1.0 1.0 0.00 0.00 0.00 93 1014.9
20260505090806 52 218 2.0 5.0 0.00 0.00 0.00 93 1014.9
20260505090304 52 189 1.0 3.0 0.00 0.00 0.00 93 1014.9
20260505085800 52 162 1.0 3.0 0.00 0.00 0.00 93 1014.7
20260505085259 52 227 1.0 3.0 0.00 0.00 0.00 92 1014.7
20260505084756 52 163 1.0 3.0 0.00 0.00 0.00 92 1014.6
20260505084255 53 168 1.0 3.0 0.00 0.00 0.00 92 1014.5
20260505083751 53 173 2.0 3.0 0.00 0.00 0.00 92 1014.6
20260505083248 53 173 2.0 2.0 0.00 0.00 0.00 91 1014.4
20260505082744 53 201 2.0 2.0 0.00 0.00 0.00 91 1014.6
20260505082241 53 168 2.0 3.0 0.00 0.00 0.00 90 1014.6
20260505081737 54 190 1.0 2.0 0.00 0.00 0.00 90 1014.3
20260505081235 54 283 2.0 3.0 0.00 0.00 0.00 90 1014.5
20260505080731 54 286 5.0 7.0 0.00 0.00 0.00 90 1014.4
20260505080227 54 333 4.0 6.0 0.00 0.00 0.00 90 1014.2
20260505075723 54 192 2.0 3.0 0.00 0.00 0.00 90 1014.2
20260505075220 54 247 3.0 3.0 0.00 0.00 0.00 90 1014.4
20260505074717 54 178 1.0 2.0 0.00 0.00 0.00 90 1014.2
20260505074214 54 158 2.0 2.0 0.00 0.00 0.00 89 1014.2
20260505073712 55 271 5.0 6.0 0.00 0.00 0.00 89 1014.1
20260505073210 55 189 2.0 5.0 0.00 0.00 0.00 88 1014.0
20260505072705 55 210 4.0 5.0 0.00 0.00 0.00 88 1014.1
20260505072202 55 235 3.0 5.0 0.00 0.00 0.00 88 1014.2
20260505071657 55 201 2.0 3.0 0.00 0.00 0.00 87 1014.1
20260505071155 55 217 4.0 5.0 0.00 0.00 0.00 87 1013.7
20260505070653 55 198 2.0 2.0 0.00 0.00 0.00 86 1014.1
20260505070149 56 255 3.0 3.0 0.00 0.00 0.00 85 1013.7
20260505065644 56 238 3.0 5.0 0.00 0.00 0.00 84 1013.5
20260505065142 57 251 4.0 5.0 0.00 0.00 0.00 83 1013.6
20260505064638 57 228 3.0 5.0 0.00 0.00 0.00 82 1013.5
20260505064136 57 295 3.0 6.0 0.00 0.00 0.00 81 1013.7
20260505063634 57 202 3.0 3.0 0.00 0.00 0.00 81 1013.6
20260505063130 57 168 2.0 5.0 0.00 0.00 0.00 82 1013.4
20260505062626 57 153 1.0 2.0 0.00 0.00 0.00 83 1013.3
20260505062124 57 248 2.0 2.0 0.00 0.00 0.00 83 1013.1
20260505061621 57 177 1.0 5.0 0.00 0.00 0.00 83 1013.2
20260505061119 57 220 3.0 5.0 0.00 0.00 0.00 83 1013.0
20260505060616 57 229 2.0 3.0 0.00 0.00 0.00 82 1013.2
20260505060113 57 187 2.0 3.0 0.00 0.00 0.00 82 1013.2
20260505055608 57 315 4.0 6.0 0.00 0.00 0.00 83 1012.9
20260505055105 57 296 3.0 3.0 0.00 0.00 0.00 82 1013.2
20260505054602 57 159 2.0 6.0 0.00 0.00 0.00 81 1013.1
20260505054100 58 279 4.0 5.0 0.00 0.00 0.00 80 1013.1
20260505053557 58 180 2.0 5.0 0.00 0.00 0.00 80 1013.1
20260505053054 59 308 5.0 7.0 0.00 0.00 0.00 79 1013.1
20260505052550 60 314 5.0 8.0 0.00 0.00 0.00 78 1013.2
20260505052048 61 260 2.0 3.0 0.00 0.00 0.00 76 1012.9
20260505051544 61 134 2.0 8.0 0.00 0.00 0.00 74 1013.0
20260505051043 61 291 6.0 7.0 0.00 0.00 0.00 74 1012.9
20260505050541 61 354 2.0 3.0 0.00 0.00 0.00 75 1013.1
20260505041508 64 285 4.0 5.0 0.00 0.00 0.00 74 1012.4
20260505041006 64 226 2.0 3.0 0.00 0.00 0.00 73 1012.2
20260505040503 64 120 2.0 3.0 0.00 0.00 0.00 72 1012.0
20260505040000 65 190 2.0 3.0 0.00 0.00 0.00 73 1012.1
20260505035455 65 260 3.0 5.0 0.00 0.00 0.00 71 1012.0
20260505034953 66 334 3.0 5.0 0.00 0.00 0.00 72 1012.0
20260505034449 65 316 3.0 6.0 0.00 0.00 0.00 72 1012.1
20260505033947 66 214 2.0 3.0 0.00 0.00 0.00 73 1011.9
20260505033443 66 264 3.0 3.0 0.00 0.00 0.00 72 1011.7
20260505032942 67 212 2.0 2.0 0.00 0.00 0.00 72 1011.6
20260505032439 68 295 3.0 5.0 0.00 0.00 0.00 71 1011.5
20260505031935 69 246 2.0 2.0 0.00 0.00 0.00 69 1011.4
20260505031432 69 182 0.0 1.0 0.00 0.00 0.00 68 1011.5
20260505030929 69 264 4.0 5.0 0.00 0.00 0.00 68 1011.3
20260505030424 69 211 3.0 3.0 0.00 0.00 0.00 67 1011.4
20260505025920 70 247 4.0 5.0 0.00 0.00 0.00 67 1011.3
20260505025418 71 168 1.0 2.0 0.00 0.00 0.00 66 1011.1
20260505024917 71 154 2.0 5.0 0.00 0.00 0.00 65 1011.3
20260505024414 72 171 1.0 2.0 0.00 0.00 0.00 64 1011.2
20260505023910 73 167 1.0 1.0 0.00 0.00 0.00 63 1011.0
20260505023408 73 177 1.0 2.0 0.00 0.00 0.00 63 1011.1
20260505022905 73 180 2.0 2.0 0.00 0.00 0.00 61 1011.1
20260505022401 73 202 1.0 2.0 0.00 0.00 0.00 61 1010.9
20260505021859 73 233 3.0 3.0 0.00 0.00 0.00 61 1011.1
20260505021355 73 205 3.0 5.0 0.00 0.00 0.00 60 1011.1
20260505020851 75 177 2.0 2.0 0.00 0.00 0.00 58 1011.1
20260505020347 75 186 1.0 3.0 0.00 0.00 0.00 58 1011.1
20260505015844 75 149 1.0 1.0 0.00 0.00 0.00 58 1011.1
20260505015341 75 180 1.0 7.0 0.00 0.00 0.00 59 1010.9
20260505014839 74 135 1.0 8.0 0.00 0.00 0.00 60 1011.2
20260505014335 75 199 4.0 8.0 0.00 0.00 0.00 59 1011.1
20260505013832 77 187 1.0 2.0 0.00 0.00 0.00 58 1011.1
20260505013329 76 175 2.0 8.0 0.00 0.00 0.00 59 1011.0
20260505012828 76 190 3.0 6.0 0.00 0.00 0.00 58 1011.0
20260505012325 76 190 2.0 8.0 0.00 0.00 0.00 58 1011.1
20260505011820 76 189 1.0 5.0 0.00 0.00 0.00 60 1011.0
20260505011318 76 188 3.0 5.0 0.00 0.00 0.00 59 1011.3
20260505010814 76 177 5.0 8.0 0.00 0.00 0.00 59 1011.2
20260505010310 76 211 4.0 8.0 0.00 0.00 0.00 59 1011.2
20260505005806 77 146 2.0 7.0 0.00 0.00 0.00 59 1011.3
20260505005304 77 240 5.0 8.0 0.00 0.00 0.00 58 1011.2
20260505004800 78 207 3.0 8.0 0.00 0.00 0.00 59 1011.3
20260505004256 78 146 2.0 6.0 0.00 0.00 0.00 58 1011.3
20260505003754 78 190 2.0 5.0 0.00 0.00 0.00 59 1011.2
20260505003252 77 180 2.0 5.0 0.00 0.00 0.00 59 1011.2
20260505002747 77 190 3.0 6.0 0.00 0.00 0.00 59 1011.3
20260505002245 78 167 4.0 5.0 0.00 0.00 0.00 58 1011.2
20260505001743 77 187 3.0 5.0 0.00 0.00 0.00 58 1011.3
20260505001240 78 142 4.0 6.0 0.00 0.00 0.00 57 1011.5
20260505000737 78 214 4.0 7.0 0.00 0.00 0.00 59 1011.3
20260505000235 78 246 5.0 7.0 0.00 0.00 0.00 58 1011.5
20260504235731 77 160 2.0 7.0 0.00 0.00 0.00 60 1011.2
20260504235227 77 149 3.0 6.0 0.00 0.00 0.00 59 1011.4
20260504234725 77 206 3.0 7.0 0.00 0.00 0.00 59 1011.1
20260504234222 77 170 2.0 5.0 0.00 0.00 0.00 59 1011.3
20260504233718 78 157 2.0 5.0 0.00 0.00 0.00 57 1011.3
20260504233214 78 155 1.0 5.0 0.00 0.00 0.00 59 1011.4
20260504232711 76 183 5.0 8.0 0.00 0.00 0.00 58 1011.6
20260504232208 77 223 5.0 8.0 0.00 0.00 0.00 57 1011.4
20260504231705 77 215 4.0 8.0 0.00 0.00 0.00 58 1011.5
20260504231201 76 202 4.0 7.0 0.00 0.00 0.00 59 1011.3
20260504230657 76 190 3.0 6.0 0.00 0.00 0.00 60 1011.7
20260504230156 77 176 4.0 9.0 0.00 0.00 0.00 59 1011.6
20260504225655 76 201 3.0 6.0 0.00 0.00 0.00 59 1011.5
20260504225150 75 208 6.0 8.0 0.00 0.00 0.00 59 1011.7
20260504224648 77 194 3.0 6.0 0.00 0.00 0.00 58 1011.7
20260504224144 76 171 3.0 5.0 0.00 0.00 0.00 60 1012.0
20260504223641 76 205 4.0 6.0 0.00 0.00 0.00 57 1011.9
20260504223136 76 161 2.0 7.0 0.00 0.00 0.00 58 1012.0
20260504222634 75 205 3.0 7.0 0.00 0.00 0.00 61 1011.8
20260504222131 76 274 4.0 6.0 0.00 0.00 0.00 57 1012.1
20260504221628 76 214 4.0 8.0 0.00 0.00 0.00 58 1011.9
20260504221125 78 153 3.0 6.0 0.00 0.00 0.00 55 1012.2
20260504220621 76 162 1.0 5.0 0.00 0.00 0.00 58 1012.2
20260504220119 73 182 3.0 6.0 0.00 0.00 0.00 60 1012.3
20260504215615 72 125 3.0 5.0 0.00 0.00 0.00 63 1012.4
20260504215113 74 130 0.0 6.0 0.00 0.00 0.00 62 1012.3
20260504214608 73 154 4.0 5.0 0.00 0.00 0.00 64 1012.3
20260504214105 71 217 2.0 5.0 0.00 0.00 0.00 65 1012.2
20260504213601 72 100 5.0 7.0 0.00 0.00 0.00 66 1012.2
20260504213058 73 166 1.0 5.0 0.00 0.00 0.00 63 1012.6
20260504212554 73 227 5.0 6.0 0.00 0.00 0.00 61 1012.4
20260504212052 73 131 1.0 5.0 0.00 0.00 0.00 61 1012.7
20260504211549 73 189 2.0 8.0 0.00 0.00 0.00 63 1012.7
20260504211045 72 160 4.0 7.0 0.00 0.00 0.00 62 1013.0
20260504210543 71 142 3.0 5.0 0.00 0.00 0.00 65 1013.1
20260504210039 70 158 0.0 2.0 0.00 0.00 0.00 67 1012.9
20260504205537 71 150 1.0 6.0 0.00 0.00 0.00 64 1013.0
20260504205035 70 189 3.0 3.0 0.00 0.00 0.00 65 1013.2
20260504204533 71 96 6.0 7.0 0.00 0.00 0.00 64 1013.3
20260504204032 70 284 3.0 6.0 0.00 0.00 0.00 66 1013.2
20260504203529 69 159 1.0 5.0 0.00 0.00 0.00 67 1013.5
20260504203027 69 98 5.0 7.0 0.00 0.00 0.00 69 1013.5
20260504202522 69 136 1.0 5.0 0.00 0.00 0.00 69 1013.4
20260504202019 69 179 2.0 3.0 0.00 0.00 0.00 68 1013.4
20260504201516 70 214 1.0 2.0 0.00 0.00 0.00 65 1013.5
20260504201014 69 154 1.0 3.0 0.00 0.00 0.00 67 1013.6
20260504200510 70 155 4.0 6.0 0.00 0.00 0.00 65 1013.7
20260504200007 68 209 2.0 5.0 0.00 0.00 0.00 67 1013.6
20260504195503 69 102 3.0 6.0 0.00 0.00 0.00 68 1013.6
20260504195000 68 165 0.0 5.0 0.00 0.00 0.00 68 1013.6
20260504194455 68 115 3.0 5.0 0.00 0.00 0.00 68 1013.8
20260504193951 69 181 1.0 3.0 0.00 0.00 0.00 67 1013.8
20260504193449 69 149 0.0 3.0 0.00 0.00 0.00 68 1013.8
20260504192948 69 147 2.0 2.0 0.00 0.00 0.00 66 1013.6
20260504192444 65 131 1.0 2.0 0.00 0.00 0.00 72 1013.8
20260504191943 65 78 3.0 6.0 0.00 0.00 0.00 73 1013.8
20260504191441 65 113 2.0 8.0 0.00 0.00 0.00 72 1014.0
20260504190936 67 101 4.0 7.0 0.00 0.00 0.00 70 1014.1
20260504190432 66 155 1.0 1.0 0.00 0.00 0.00 69 1013.7
20260504185929 66 194 5.0 6.0 0.00 0.00 0.00 67 1014.1
20260504185426 67 194 8.0 9.0 0.00 0.00 0.00 66 1014.1
20260504184922 65 245 3.0 5.0 0.00 0.00 0.00 71 1014.1
20260504184418 64 157 0.0 5.0 0.00 0.00 0.00 74 1014.2
20260504183914 62 186 1.0 5.0 0.00 0.00 0.00 75 1014.1
20260504183411 62 123 1.0 3.0 0.00 0.00 0.00 77 1014.1
20260504182909 62 126 3.0 3.0 0.00 0.00 0.00 77 1014.2
20260504182406 63 84 1.0 6.0 0.00 0.00 0.00 77 1014.2
20260504181903 63 151 1.0 5.0 0.00 0.00 0.00 76 1014.0
20260504181400 64 150 3.0 5.0 0.00 0.00 0.00 74 1014.2
20260504180859 61 144 1.0 2.0 0.00 0.00 0.00 79 1014.2
20260504180357 60 149 4.0 6.0 0.00 0.00 0.00 80 1014.1
20260504175855 62 171 2.0 3.0 0.00 0.00 0.00 77 1014.2
20260504175351 62 157 1.0 3.0 0.00 0.00 0.00 77 1014.2
20260504174850 61 238 2.0 3.0 0.00 0.00 0.00 79 1014.2
20260504174347 62 246 4.0 6.0 0.00 0.00 0.00 78 1014.3
20260504173844 61 175 1.0 3.0 0.00 0.00 0.00 79 1014.2
20260504173340 62 155 0.0 5.0 0.00 0.00 0.00 77 1014.1
20260504172837 62 164 2.0 2.0 0.00 0.00 0.00 76 1014.0
20260504172334 60 187 2.0 3.0 0.00 0.00 0.00 80 1014.1
20260504171830 60 190 3.0 3.0 0.00 0.00 0.00 79 1014.2
20260504171327 60 255 2.0 5.0 0.00 0.00 0.00 81 1013.9
20260504170824 59 170 3.0 6.0 0.00 0.00 0.00 82 1014.1
20260504170321 59 260 4.0 6.0 0.00 0.00 0.00 83 1014.0
20260504160239 58 332 3.0 3.0 0.00 0.00 0.00 83 1014.0
20260504150705 58 320 4.0 5.0 0.00 0.00 0.00 84 1013.7
20260504150202 58 322 3.0 5.0 0.00 0.00 0.00 84 1013.7
20260504141131 56 189 2.0 2.0 0.00 0.00 0.00 88 1013.0
20260504140627 55 209 3.0 5.0 0.00 0.00 0.00 88 1013.0
20260504140123 55 243 1.0 2.0 0.00 0.00 0.00 89 1012.9
20260504130551 53 234 3.0 3.0 0.00 0.00 0.00 93 1012.2
20260504110439 57 196 1.0 2.0 0.00 0.00 0.00 84 1010.5
20260504100355 60 178 1.0 1.0 0.00 0.00 0.00 79 1009.7